| time (UTC) | temp C | wind direction | speed KPH | gust KPH | rain 1hr cm | rain 24hr cm | rain mn cm | humidity % | barometer mb |
| 20260504175018 | 20 | 237 | 6.4 | 16.1 | 0.00 | 0.00 | 0.00 | 42 | 1010.1 |
| 20260504174021 | 20 | 239 | 4.8 | 11.3 | 0.00 | 0.00 | 0.00 | 42 | 1010.3 |
| 20260504173045 | 20 | 234 | 4.8 | 11.3 | 0.00 | 0.00 | 0.00 | 42 | 1010.3 |
| 20260504172021 | 20 | 223 | 4.8 | 11.3 | 0.00 | 0.00 | 0.00 | 43 | 1010.5 |
| 20260504171021 | 20 | 240 | 3.2 | 9.7 | 0.00 | 0.00 | 0.00 | 43 | 1010.5 |
| 20260504151037 | 17 | 293 | 4.8 | 9.7 | 0.00 | 0.00 | 0.00 | 51 | 1011.9 |
| 20260504141018 | 15 | 254 | 4.8 | 11.3 | 0.00 | 0.00 | 0.00 | 55 | 1012.3 |
| 20260504081017 | 4 | 291 | 0.0 | 1.6 | 0.00 | 0.00 | 0.00 | 80 | 1012.6 |
| 20260504045021 | 5 | 336 | 1.6 | 3.2 | 0.00 | 0.00 | 0.00 | 76 | 1011.9 |
| 20260504044021 | 5 | 336 | 1.6 | 3.2 | 0.00 | 0.00 | 0.00 | 76 | 1011.9 |
| 20260504043022 | 5 | 193 | 1.6 | 4.8 | 0.00 | 0.00 | 0.00 | 76 | 1011.9 |
| 20260504042021 | 6 | 251 | 0.0 | 1.6 | 0.00 | 0.00 | 0.00 | 74 | 1012.0 |
| 20260504041021 | 6 | 348 | 1.6 | 3.2 | 0.00 | 0.00 | 0.00 | 74 | 1011.9 |
| 20260504040022 | 6 | 341 | 0.0 | 3.2 | 0.00 | 0.00 | 0.00 | 72 | 1011.8 |
| 20260504035021 | 6 | 352 | 1.6 | 3.2 | 0.00 | 0.00 | 0.00 | 72 | 1011.8 |
| 20260504034022 | 6 | 349 | 0.0 | 3.2 | 0.00 | 0.00 | 0.00 | 71 | 1011.9 |
| 20260504033022 | 6 | 337 | 1.6 | 3.2 | 0.00 | 0.00 | 0.00 | 69 | 1011.7 |
| 20260504032022 | 6 | 236 | 1.6 | 3.2 | 0.00 | 0.00 | 0.00 | 69 | 1011.7 |
| 20260504031022 | 6 | 321 | 1.6 | 1.6 | 0.00 | 0.00 | 0.00 | 66 | 1011.6 |
| 20260504030023 | 6 | 319 | 0.0 | 1.6 | 0.00 | 0.00 | 0.00 | 66 | 1011.7 |
| 20260504025022 | 7 | 331 | 0.0 | 1.6 | 0.00 | 0.00 | 0.00 | 64 | 1011.7 |
| 20260504024043 | 7 | 299 | 0.0 | 1.6 | 0.00 | 0.00 | 0.00 | 64 | 1011.7 |
| 20260504023024 | 7 | 302 | 0.0 | 1.6 | 0.00 | 0.00 | 0.00 | 63 | 1011.7 |
| 20260504022023 | 7 | 299 | 0.0 | 1.6 | 0.00 | 0.00 | 0.00 | 61 | 1011.7 |
| 20260504021024 | 8 | 316 | 1.6 | 3.2 | 0.00 | 0.00 | 0.00 | 58 | 1011.6 |
| 20260504020024 | 8 | 304 | 0.0 | 1.6 | 0.00 | 0.00 | 0.00 | 57 | 1011.6 |
| 20260504015024 | 8 | 318 | 1.6 | 1.6 | 0.00 | 0.00 | 0.00 | 56 | 1011.6 |
| 20260504014024 | 8 | 323 | 0.0 | 1.6 | 0.00 | 0.00 | 0.00 | 55 | 1011.6 |
| 20260504013024 | 9 | 325 | 0.0 | 1.6 | 0.00 | 0.00 | 0.00 | 54 | 1011.4 |
| 20260504012044 | 10 | 314 | 0.0 | 1.6 | 0.00 | 0.00 | 0.00 | 53 | 1011.3 |
| 20260504011024 | 10 | 321 | 0.0 | 1.6 | 0.00 | 0.00 | 0.00 | 49 | 1011.2 |
| 20260504010025 | 10 | 291 | 0.0 | 1.6 | 0.00 | 0.00 | 0.00 | 50 | 1011.0 |
| 20260504005125 | 11 | 276 | 0.0 | 0.0 | 0.00 | 0.00 | 0.00 | 48 | 1010.8 |
| 20260504004024 | 12 | 262 | 0.0 | 0.0 | 0.00 | 0.00 | 0.00 | 45 | 1010.7 |
| 20260504003025 | 12 | 226 | 0.0 | 1.6 | 0.00 | 0.00 | 0.00 | 43 | 1010.5 |
| 20260504002026 | 12 | 306 | 0.0 | 1.6 | 0.00 | 0.00 | 0.00 | 41 | 1010.4 |
| 20260504001025 | 12 | 210 | 0.0 | 1.6 | 0.00 | 0.00 | 0.00 | 39 | 1010.2 |
| 20260504000025 | 13 | 295 | 0.0 | 1.6 | 0.00 | 0.00 | 0.00 | 37 | 1010.1 |
| 20260503235025 | 13 | 334 | 1.6 | 3.2 | 0.00 | 0.00 | 0.00 | 36 | 1009.9 |
| 20260503234026 | 13 | 328 | 1.6 | 4.8 | 0.00 | 0.00 | 0.00 | 35 | 1009.7 |
| 20260503233021 | 13 | 323 | 3.2 | 11.3 | 0.00 | 0.00 | 0.00 | 34 | 1009.6 |
| 20260503232020 | 13 | 333 | 3.2 | 8.0 | 0.00 | 0.00 | 0.00 | 34 | 1009.5 |
| 20260503231040 | 14 | 325 | 4.8 | 8.0 | 0.00 | 0.00 | 0.00 | 34 | 1009.4 |
| 20260503230021 | 15 | 310 | 3.2 | 9.7 | 0.00 | 0.00 | 0.00 | 33 | 1009.4 |
| 20260503225021 | 15 | 328 | 8.0 | 14.5 | 0.00 | 0.00 | 0.00 | 33 | 1009.2 |
| 20260503224058 | 15 | 329 | 8.0 | 16.1 | 0.00 | 0.00 | 0.00 | 33 | 1009.1 |
| 20260503223021 | 15 | 312 | 4.8 | 11.3 | 0.00 | 0.00 | 0.00 | 34 | 1009.1 |
| 20260503222021 | 15 | 322 | 8.0 | 14.5 | 0.00 | 0.00 | 0.00 | 34 | 1009.1 |
| 20260503221036 | 15 | 333 | 4.8 | 11.3 | 0.00 | 0.00 | 0.00 | 37 | 1009.1 |
| 20260503220016 | 15 | 324 | 8.0 | 14.5 | 0.00 | 0.00 | 0.00 | 37 | 1009.1 |
| 20260503215015 | 15 | 338 | 6.4 | 11.3 | 0.00 | 0.00 | 0.00 | 37 | 1009.1 |
| 20260503214036 | 15 | 327 | 9.7 | 17.7 | 0.00 | 0.00 | 0.00 | 37 | 1009.1 |
| 20260503213036 | 15 | 351 | 6.4 | 14.5 | 0.00 | 0.00 | 0.00 | 39 | 1009.0 |
| 20260503212016 | 15 | 328 | 4.8 | 12.9 | 0.00 | 0.00 | 0.00 | 40 | 1009.0 |
| 20260503211016 | 15 | 344 | 8.0 | 19.3 | 0.00 | 0.00 | 0.00 | 39 | 1008.9 |
| 20260503210016 | 15 | 320 | 8.0 | 17.7 | 0.00 | 0.00 | 0.00 | 38 | 1008.8 |
| 20260503205016 | 15 | 323 | 6.4 | 16.1 | 0.00 | 0.00 | 0.00 | 39 | 1008.9 |
| 20260503204036 | 15 | 332 | 6.4 | 14.5 | 0.00 | 0.00 | 0.00 | 40 | 1008.8 |
| 20260503203016 | 14 | 308 | 9.7 | 16.1 | 0.00 | 0.00 | 0.00 | 39 | 1008.8 |
| 20260503202017 | 14 | 333 | 6.4 | 14.5 | 0.00 | 0.00 | 0.00 | 40 | 1008.8 |
| 20260503201017 | 13 | 326 | 9.7 | 19.3 | 0.00 | 0.00 | 0.00 | 41 | 1008.9 |
| 20260503200017 | 13 | 344 | 8.0 | 14.5 | 0.00 | 0.00 | 0.00 | 40 | 1009.2 |
| 20260503195017 | 13 | 332 | 6.4 | 12.9 | 0.00 | 0.00 | 0.00 | 43 | 1009.0 |
| 20260503194017 | 13 | 331 | 6.4 | 12.9 | 0.00 | 0.00 | 0.00 | 42 | 1009.2 |
| 20260503193038 | 13 | 319 | 6.4 | 14.5 | 0.00 | 0.00 | 0.00 | 41 | 1009.5 |
| 20260503192017 | 13 | 322 | 9.7 | 17.7 | 0.00 | 0.00 | 0.00 | 41 | 1009.5 |
| 20260503191018 | 13 | 325 | 6.4 | 14.5 | 0.00 | 0.00 | 0.00 | 42 | 1009.2 |
| 20260503190018 | 13 | 337 | 6.4 | 17.7 | 0.00 | 0.00 | 0.00 | 42 | 1009.4 |
| 20260503185020 | 13 | 326 | 9.7 | 20.9 | 0.00 | 0.00 | 0.00 | 41 | 1009.4 |
| 20260503184018 | 13 | 314 | 9.7 | 25.7 | 0.00 | 0.00 | 0.00 | 41 | 1009.3 |
| 20260503183059 | 12 | 332 | 6.4 | 14.5 | 0.00 | 0.00 | 0.00 | 41 | 1009.5 |
| 20260503182020 | 13 | 323 | 8.0 | 17.7 | 0.00 | 0.00 | 0.00 | 41 | 1009.3 |
| 20260503181018 | 13 | 325 | 8.0 | 14.5 | 0.00 | 0.00 | 0.00 | 41 | 1009.2 |
| 20260503180018 | 12 | 337 | 6.4 | 14.5 | 0.00 | 0.00 | 0.00 | 41 | 1009.2 |